Regional Weather Roundup
Issued by NWS Charleston, WV

Home | Current Version | Previous Version | Text Only | Print | Product List | Glossary Off
Versions: 1 2 3 4 5 6 7 8 9 10 11 12 13 14 15 16 17 18 19 20 21 22 23 24 25 26 27 28 29 30 31 32 33 34 35 36 37 38 39 40 41 42 43 44 45 46 47 48 49

000
ASUS41 KRLX 210610
RWRRLX
CRWRWRRLX ALL
West Virginia Regional Weather Roundup
National Weather Service Charleston WV
Issued by National Weather Service Pittsburgh PA
100 AM EST SAT JAN 21 2017

Note: "fair" indicates few or no clouds below 12,000 feet with no
significant weather and/or obstructions to visibility.

WVZ003-210700-
Northern Panhandle of West Virginia

CITY           SKY/WX    TMP DP  RH WIND       PRES   REMARKS
WHEELING       CLEAR     51  48  89 S8        29.81F
$$

WVZ009-210700-
Northwest West Virginia

CITY           SKY/WX    TMP DP  RH WIND       PRES   REMARKS
PARKERSBURG    FOG       42  41  96 SE3       29.84F VSB 1/2
$$

WVZ006-210700-
Western West Virginia

CITY           SKY/WX    TMP DP  RH WIND       PRES   REMARKS
HUNTINGTON     PTCLDY    48  46  93 E3        29.80F
$$

WVZ015-210700-
West Central West Virginia

CITY           SKY/WX    TMP DP  RH WIND       PRES   REMARKS
CHARLESTON     CLOUDY    50  47  89 CALM      29.83S
$$

WVZ031-210700-
North Central West Virginia

CITY           SKY/WX    TMP DP  RH WIND       PRES   REMARKS
CLARKSBURG     FOG       44  43  96 CALM      29.84S VSB 1/4
MORGANTOWN     FOG       47  44  90 CALM      29.84S VSB 1/4
$$

WVZ035-042-210700-
South Central West Virginia

CITY           SKY/WX    TMP DP  RH WIND       PRES   REMARKS
BECKLEY        CLOUDY    51  45  79 SE5       29.87F
BLUEFIELD      PTCLDY    52  44  74 SW6       29.89F
$$

WVZ045-210700-
Greenbrier Valley of West Virginia

CITY           SKY/WX    TMP DP  RH WIND       PRES   REMARKS
LEWISBURG      FOG       38  38 100 CALM      29.89R VSB 1/4
$$

WVZ047-210700-
Northern Mountains of West Virginia

CITY           SKY/WX    TMP DP  RH WIND       PRES   REMARKS
ELKINS         CLOUDY    41  39  93 CALM      29.87S FOG
$$

WVZ052-210700-
Eastern Panhandle of West Virginia

CITY           SKY/WX    TMP DP  RH WIND       PRES   REMARKS
MARTINSBURG    FOG       42  41  96 CALM      29.89S VSB 1/4
PETERSBURG     FOG       39  38  99 CALM      29.89S VSB 3/4
$$




USA.gov is the U.S. government's official web portal to all federal, state and local government web resources and services.